DMSP 5D-2 F13 DEB, 40413

Orbit data source: Space-Track

DMSP 5D-2 F13 DEB, 40413 is space debris in SSO originally from a launch on Fri, 24 Mar 1995 UTC launched from the Air Force Western Test Range (AFWTR). Debris objects in space refer to the collection of defunct objects orbiting the Earth. Examples of debris include non-operational satellites, rocket bodies, and fragments generated from explosions, collisions, or faulty payload assembly.

Loading next visibility...
DMSP 5D-2 F13 DEB details
Identifier
40413, 1995-015AA
Orbit
SSO
Last TLE update9 hours ago
Origin
Flag of USUSAF SMC (US)
ManufacturerUnknown
MissionSpacecraft
Bus & MotorUnknown
MassUnknown
Launch date (UTC)
1995-03-24 (30 years ago)
Launch vehicleUnknown
Launch site
Air Force Western Test Range (AFWTR)
Object type
Payload
Rocket body
Debris
Shape & HBRUnknown
Radar Cross SectionSmall (<0.1 m²)

Expand to show TLE details & history

TLE from 9 hours ago
0 DMSP 5D-2 F13 DEB
1 40413U 95015AA  24361.03786084  .00006132  00000-0  24237-2 0  9996
2 40413  98.6621  21.6792 0013995  69.1501 291.1178 14.29278365513311
Epoch: 2024-12-26T00:54Z
Definitive object data (Epoch: 2024-12-26T00:54:31.176Z)
Latitude-0.00004°
Longitude-86.9737°
Altitude793.468 km
Speed7.459 km/s
True Right ascension01h 26m 43s
True Declination0° 00' 00"
Sunlit
Object was in daylight at TLE epoch
Visualization TLE readout
Latitude2.34602°
Longitude93.76404°
Altitude800.122 km
Speed7.452 km/s
Apparent Right ascension16h 17m 20s
Apparent Declination-30° 43' 48"
Sunlit
Object is in daylight
Visualization observer readout
Local Sidereal Time09:29:17
Azimuth108.243° ESE
Elevation-27.717°
Doppler factor1
Orbital elements
Apogee altitude801.321 km
Perigee altitude781.254 km
Semi-major axis7,169.425 km
Eccentricity0.0013995
Inclination98.6621°
RAAN21.6792°
Arg. of periapsis69.1501°
True anomaly290.96811°
Mean anomaly291.1178°
Eccentric anomaly291.04296°
Mean motion3.57533 °/min
BSTAR0.0024237
Orbital period100.69 mins
Loading maneuver chart data...

DMSP 5D-2 F13 DEB Visibility forecast

Observer location: undefined°, undefined

Span
Click to sort rows by Start time (UTC) header in descending order
Start Az.
Max El. time (UTC)
Max El. Az.
Max El.
End time (UTC)
End Az.
5 mins2024-12-26 13:17:08.952Z59.18° ENE2024-12-26 13:20:08.952Z98.382° ESE16.328°2024-12-26 13:22:08.952Z123.837° SE
8 mins2024-12-26 14:56:08.952Z358.501° N2024-12-26 14:59:08.952Z307.939° NW38.63°2024-12-26 15:04:08.952Z212.98° SW
7 mins2024-12-27 00:35:08.952Z110.814° ESE2024-12-27 00:38:08.952Z65.855° ENE23.339°2024-12-27 00:42:08.952Z12.809° NNE
8 mins2024-12-27 02:14:08.952Z202.957° SW2024-12-27 02:17:08.952Z252.582° W31.199°2024-12-27 02:22:08.952Z329.258° NNW
|